• Join FlightAware (Why Join?)
  • Login
  • US Flag GB Flag 
16:10 EST


 

Airport Tracker/Info


-or-


 

Live Flight TrackerFlight Track Log ✈ HAL107 ✈ 04-May-2013 ✈ PHKO / KOA - PHNL

Flight Track Log - Related Links

Times and Time Zones

All times are in EDT time to prevent confusion due to time zone crossing. See the HAL107 flight status page for this flight to view local times or setup timezone preferences in your user account.

Time Position Orientation Groundspeed Altitude Reporting Facility
EDT Latitude Longitude Course Direction KTS MPH feet Rate Location/Type
12:19 19.7000 -156.0667 303° West 220 253 1,800  Level Honolulu Center
12:20 19.7333 -156.1167 305° West 230 265 3,500 1,740 Climbing Honolulu Center
12:21 19.8484 -156.2559 305° West  Level FlightAware Approximate
12:21 19.7667 -156.1667 305° West 260 299 5,300  Level Honolulu Center
12:22 19.9007 -156.3136 301° West  Level FlightAware Approximate
12:22 19.8167 -156.2167 317° Northwest 290 334 7,600  Level Honolulu Center
12:23 19.9430 -156.3878 301° West  Level FlightAware Approximate
12:23 19.8833 -156.2833 317° Northwest 290 334 9,900  Level Honolulu Center
12:24 19.9883 -156.4550 317° Northwest  Level FlightAware Approximate
12:24 19.9333 -156.3500 309° West 310 357 11,100  Level Honolulu Center
12:25 20.0353 -156.5255 303° West  Level FlightAware Approximate
12:25 20.0000 -156.4333 310° West 340 391 12,800  Level Honolulu Center
12:26 20.0667 -156.5000 317° Northwest 350 403 14,500 1,800 Climbing Honolulu Center
12:27 20.1333 -156.6000 305° West 360 414 16,500 1,980 Climbing Honolulu Center
12:28 20.2000 -156.6833 310° West 370 426 18,500 1,800 Climbing Honolulu Center
12:29 20.2833 -156.7667 317° Northwest 380 437 20,200 1,740 Climbing Honolulu Center
12:30 20.3500 -156.8500 310° West 380 437 22,000 900 Climbing Honolulu Center
12:31 20.4167 -156.9333 310° West 380 437 22,000  Level Honolulu Center
12:32 20.5000 -157.0167 317° Northwest 380 437 22,000  Level Honolulu Center
12:33 20.5667 -157.1000 311° West 390 449 22,000 -60 Level Honolulu Center
12:34 20.6333 -157.1833 311° West 390 449 21,900 -780 Descending Honolulu Center
12:35 20.7167 -157.2667 317° Northwest 390 449 20,500 -2,400 Descending Honolulu Center
12:36 20.7833 -157.3667 306° West 370 426 17,100 -3,240 Descending Honolulu Center
12:37 20.8500 -157.4500 311° West 370 426 14,100 -2,940 Descending Honolulu Center
12:38 20.9167 -157.5333 311° West 360 414 11,300 -2,040 Descending Honolulu Center
12:39 20.9667 -157.6000 309° West 320 368 10,100 -1,440 Descending Honolulu Center
12:40 21.0167 -157.6667 309° West 280 322 8,500 -1,740 Descending Honolulu Center
12:41 21.0667 -157.7333 309° West 280 322 6,700 -1,860 Descending Honolulu Center
12:42 21.1167 -157.8000 309° West 270 311 4,800 -1,920 Descending Honolulu Center